Temp
-14 -14 -14 -14 -15 -15 -15 -15 -15 -14 -14 -14 -14 -14 -14 -14 -14 -14 -14 -14 -14 -15 -15 -15 -15 -15 -15 -15 -15 -15 -15 -15 -15 -15 -15 -15 -15 -15 -15 -15 -15 -15
-14 -14 -14 -14 -15 -15 -15 -15 -15 -15 -15 -15 -14 -14 -14 -14 -14 -14 -14 -14 -14 -14 -15 -15 -15 -15 -15 -15 -15 -15 -15 -15 -15 -15 -15 -15 -15 -15 -15 -15 -15 -15
-14 -14 -14 -14 -15 -15 -15 -15 -15 -15 -15 -15 -15 -15 -14 -14 -14 -14 -14 -14 -14 -14 -15 -15 -15 -15 -15 -16 -15 -15 -15 -15 -15 -15 -15 -15 -15 -15 -15 -15 -16 -16
-14 -14 -14 -15 -15 -15 -15 -15 -14 -15 -15 -15 -15 -15 -14 -14 -14 -14 -14 -14 -14 -14 -15 -15 -15 -15 -16 -16 -16 -16 -15 -15 -15 -15 -15 -16 -16 -16 -16 -16 -16 -16
-14 -14 -14 -15 -15 -15 -15 -15 -15 -15 -15 -15 -15 -15 -15 -15 -14 -14 -14 -14 -14 -15 -15 -15 -15 -16 -16 -16 -16 -16 -16 -16 -16 -16 -16 -16 -16 -16 -16 -16 -16 -16
-14 -14 -14 -14 -15 -15 -15 -15 -15 -15 -15 -15 -15 -15 -15 -15 -15 -15 -15 -15 -15 -15 -15 -15 -16 -16 -16 -16 -16 -16 -16 -16 -16 -16 -16 -16 -16 -16 -16 -16 -16 -16
-15 -15 -15 -14 -14 -15 -15 -15 -15 -15 -15 -15 -15 -15 -15 -15 -15 -15 -15 -15 -15 -15 -15 -15 -16 -16 -16 -16 -16 -16 -16 -16 -16 -16 -16 -17 -17 -17 -17 -17 -17 -17
-15 -15 -15 -15 -15 -15 -15 -15 -15 -15 -16 -16 -16 -16 -16 -15 -15 -15 -15 -15 -15 -16 -16 -16 -16 -16 -16 -16 -16 -16 -16 -16 -16 -17 -17 -17 -17 -17 -17 -17 -17 -17
-15 -15 -15 -15 -15 -15 -15 -15 -15 -15 -16 -16 -16 -16 -16 -16 -16 -15 -16 -16 -16 -16 -16 -16 -17 -17 -17 -17 -17 -17 -17 -17 -17 -17 -17 -17 -17 -17 -17 -17 -17 -17
-15 -15 -15 -15 -15 -15 -16 -16 -16 -16 -16 -17 -17 -17 -16 -16 -16 -16 -16 -16 -16 -17 -17 -17 -17 -17 -17 -17 -17 -17 -17 -17 -17 -17 -17 -17 -17 -17 -17 -17 -17 -17
-15 -15 -15 -16 -16 -16 -17 -17 -17 -17 -17 -17 -17 -17 -16 -16 -16 -16 -16 -16 -17 -17 -17 -17 -17 -17 -17 -17 -17 -17 -17 -17 -17 -17 -17 -17 -17 -17 -17 -17 -17 -17
-15 -16 -16 -16 -16 -17 -17 -17 -17 -17 -17 -17 -17 -17 -17 -17 -16 -17 -17 -17 -17 -17 -17 -17 -17 -17 -17 -17 -17 -17 -17 -17 -17 -17 -17 -17 -17 -17 -17 -17 -17 -17
-16 -16 -17 -17 -17 -16 -16 -16 -17 -17 -17 -17 -17 -17 -17 -17 -17 -17 -17 -17 -17 -17 -17 -17 -17 -17 -17 -17 -17 -17 -17 -17 -17 -17 -17 -17 -17 -17 -17 -17 -17 -17
-16 -16 -17 -17 -17 -16 -16 -16 -17 -17 -17 -17 -17 -17 -17 -17 -17 -17 -17 -17 -17 -17 -17 -17 -17 -17 -17 -17 -17 -17 -17 -17 -17 -17 -17 -17 -17 -17 -17 -17 -17 -18
-17 -17 -17 -17 -17 -17 -17 -17 -17 -17 -17 -17 -17 -17 -17 -17 -17 -17 -17 -17 -17 -17 -17 -17 -17 -17 -17 -17 -17 -17 -17 -17 -17 -17 -17 -17 -17 -17 -17 -17 -17 -18
-17 -17 -17 -18 -18 -18 -18 -17 -17 -17 -17 -17 -17 -17 -17 -17 -17 -17 -17 -17 -17 -17 -17 -17 -17 -17 -17 -17 -17 -17 -17 -17 -17 -18 -17 -17 -17 -17 -17 -17 -17 -17
-17 -17 -17 -18 -18 -18 -18 -18 -18 -17 -18 -18 -18 -17 -17 -17 -17 -17 -17 -17 -17 -17 -17 -17 -17 -17 -17 -17 -17 -17 -17 -17 -17 -17 -17 -17 -17 -17 -17 -17 -17 -17
-17 -17 -18 -18 -18 -18 -18 -18 -18 -18 -18 -18 -18 -18 -18 -18 -18 -18 -17 -17 -17 -17 -17 -17 -17 -17 -17 -17 -17 -17 -17 -17 -17 -17 -17 -17 -17 -17 -17 -17 -17 -17
-17 -17 -17 -17 -18 -17 -17 -17 -17 -18 -18 -18 -18 -18 -18 -18 -18 -18 -18 -17 -17 -17 -17 -17 -18 -18 -18 -17 -17 -17 -17 -17 -17 -17 -17 -17 -17 -17 -17 -17 -17 -17
-17 -17 -17 -17 -17 -17 -17 -17 -17 -18 -18 -18 -18 -18 -18 -18 -18 -18 -18 -18 -18 -18 -18 -18 -18 -18 -18 -18 -18 -18 -17 -17 -17 -17 -17 -17 -17 -17 -17 -17 -17 -17
-18 -18 -18 -18 -18 -17 -17 -17 -18 -18 -18 -18 -18 -18 -18 -18 -18 -18 -18 -18 -18 -18 -18 -18 -18 -18 -18 -18 -18 -18 -18 -18 -18 -18 -18 -18 -18 -18 -18 -18 -18 -18
-18 -18 -18 -18 -18 -18 -18 -18 -18 -18 -18 -18 -18 -18 -18 -18 -18 -18 -18 -18 -18 -18 -18 -18 -18 -18 -18 -18 -18 -18 -18 -18 -18 -18 -18 -18 -18 -18 -18 -18 -18 -19
-18 -18 -18 -18 -18 -18 -18 -18 -18 -18 -18 -18 -19 -19 -19 -19 -19 -19 -19 -19 -19 -19 -19 -19 -19 -19 -19 -19 -19 -19 -19 -19 -19 -19 -19 -19 -19 -19 -19 -19 -19 -19
-18 -18 -18 -18 -18 -18 -18 -18 -18 -18 -19 -19 -19 -19 -19 -19 -19 -19 -19 -19 -19 -19 -19 -19 -19 -19 -19 -19 -19 -19 -19 -19 -19 -19 -19 -19 -19 -19 -19 -19 -19 -19
-18 -18 -19 -19 -19 -19 -19 -19 -19 -19 -19 -19 -19 -19 -19 -19 -19 -20 -20 -20 -20 -20 -20 -19 -19 -19 -19 -19 -19 -19 -19 -20 -20 -20 -20 -19 -19 -19 -19 -19 -19 -19
-19 -19 -19 -19 -19 -19 -19 -19 -19 -19 -19 -19 -19 -19 -19 -19 -19 -20 -20 -20 -20 -20 -20 -20 -19 -19 -19 -19 -19 -19 -20 -20 -20 -20 -20 -19 -19 -20 -20 -20 -20 -20
Height
5779 5779 5779 5779 5779 5779 5779 5779 5779 5780 5780 5781 5781 5780 5780 5779 5779 5779 5779 5779 5779 5779 5780 5780 5781 5781 5782 5782 5783 5783 5784 5784 5784 5785 5784 5784 5784 5784 5784 5784 5784 5784
5777 5777 5776 5776 5776 5776 5777 5777 5777 5777 5778 5778 5779 5778 5778 5778 5777 5777 5777 5777 5777 5778 5778 5778 5779 5779 5779 5780 5781 5781 5781 5782 5782 5782 5782 5781 5781 5781 5781 5781 5781 5781
5775 5774 5773 5773 5774 5774 5774 5775 5775 5775 5776 5776 5776 5776 5776 5776 5776 5776 5776 5776 5776 5776 5776 5776 5777 5777 5777 5778 5778 5779 5779 5779 5779 5779 5779 5778 5778 5778 5778 5778 5778 5778
5772 5771 5770 5770 5771 5771 5772 5772 5773 5773 5773 5774 5774 5774 5774 5775 5775 5775 5775 5774 5774 5774 5774 5774 5775 5775 5775 5776 5776 5777 5777 5777 5777 5776 5776 5776 5776 5775 5775 5775 5775 5775
5769 5768 5768 5767 5768 5768 5769 5770 5770 5770 5771 5771 5772 5772 5772 5773 5773 5773 5773 5773 5773 5773 5773 5773 5773 5773 5774 5774 5775 5775 5775 5775 5775 5775 5774 5774 5774 5774 5773 5773 5773 5773
5766 5765 5765 5765 5765 5765 5766 5767 5767 5767 5767 5768 5769 5769 5770 5771 5772 5772 5771 5771 5771 5771 5771 5771 5771 5772 5772 5772 5773 5773 5773 5773 5773 5773 5773 5773 5772 5772 5772 5772 5772 5772
5761 5761 5761 5762 5762 5762 5763 5763 5764 5764 5764 5765 5766 5767 5768 5769 5769 5770 5769 5769 5769 5769 5769 5770 5770 5770 5770 5771 5771 5770 5770 5770 5771 5771 5771 5771 5771 5771 5771 5771 5771 5771
5757 5757 5757 5758 5758 5758 5759 5760 5760 5761 5761 5762 5764 5765 5766 5767 5767 5767 5767 5767 5768 5768 5768 5768 5769 5769 5769 5769 5769 5768 5768 5768 5768 5768 5769 5769 5769 5769 5769 5769 5770 5769
5754 5754 5753 5753 5753 5754 5755 5756 5757 5758 5759 5761 5762 5763 5764 5765 5766 5766 5766 5766 5766 5767 5767 5768 5768 5768 5767 5767 5767 5767 5767 5767 5767 5767 5767 5767 5767 5768 5768 5768 5768 5768
5749 5748 5747 5747 5748 5750 5751 5753 5755 5756 5758 5759 5761 5762 5763 5763 5764 5764 5764 5764 5765 5766 5766 5766 5766 5766 5766 5766 5766 5766 5765 5765 5765 5765 5766 5766 5766 5766 5767 5767 5767 5766
5745 5743 5743 5744 5745 5747 5748 5750 5752 5754 5756 5757 5759 5760 5761 5762 5762 5762 5763 5763 5764 5765 5765 5765 5765 5764 5764 5764 5764 5764 5763 5763 5763 5764 5765 5765 5766 5766 5765 5765 5765 5764
5743 5743 5743 5744 5745 5746 5747 5749 5750 5751 5753 5755 5756 5758 5759 5759 5760 5760 5761 5762 5763 5763 5763 5764 5763 5763 5762 5762 5762 5762 5762 5762 5762 5763 5764 5764 5764 5764 5764 5763 5763 5762
5741 5741 5741 5742 5743 5745 5747 5748 5749 5750 5752 5753 5754 5755 5756 5756 5757 5758 5759 5759 5760 5761 5761 5761 5761 5761 5761 5761 5761 5761 5761 5761 5762 5762 5762 5761 5761 5762 5762 5761 5761 5761
5740 5739 5738 5739 5741 5743 5745 5746 5747 5749 5750 5751 5752 5752 5753 5753 5754 5755 5756 5757 5758 5759 5759 5758 5758 5759 5759 5758 5758 5758 5758 5759 5760 5760 5759 5759 5759 5760 5759 5759 5759 5759
5738 5737 5738 5738 5739 5741 5742 5744 5745 5746 5748 5749 5749 5750 5750 5751 5751 5753 5754 5755 5756 5756 5756 5756 5756 5756 5756 5755 5755 5755 5755 5757 5757 5757 5757 5756 5756 5757 5757 5756 5755 5755
5735 5736 5736 5737 5738 5739 5740 5741 5742 5744 5745 5746 5747 5747 5748 5748 5749 5750 5751 5752 5753 5753 5753 5753 5752 5752 5753 5752 5752 5752 5753 5753 5754 5754 5753 5753 5753 5753 5753 5753 5752 5752
5733 5734 5735 5736 5736 5737 5737 5738 5739 5741 5742 5743 5743 5744 5745 5746 5746 5747 5748 5749 5749 5750 5750 5749 5749 5749 5749 5749 5749 5749 5749 5750 5750 5750 5750 5750 5749 5749 5749 5748 5748 5748
5732 5733 5733 5733 5734 5734 5734 5735 5735 5737 5738 5739 5740 5741 5742 5742 5743 5744 5744 5745 5746 5746 5746 5745 5745 5745 5744 5744 5745 5745 5745 5746 5746 5746 5746 5746 5746 5745 5745 5744 5743 5743
5731 5732 5732 5732 5732 5732 5733 5733 5732 5732 5734 5735 5736 5737 5738 5738 5739 5739 5740 5741 5741 5741 5741 5741 5741 5740 5740 5740 5740 5740 5740 5741 5741 5741 5741 5741 5741 5741 5741 5740 5739 5738
5729 5730 5731 5731 5731 5730 5730 5730 5728 5729 5730 5731 5732 5733 5733 5733 5734 5734 5735 5735 5736 5737 5737 5736 5736 5735 5735 5735 5735 5735 5735 5735 5735 5735 5735 5736 5736 5736 5735 5735 5735 5734
5724 5725 5725 5726 5726 5725 5726 5726 5725 5725 5725 5726 5727 5727 5727 5728 5728 5728 5729 5730 5731 5732 5732 5731 5731 5730 5730 5730 5730 5730 5729 5730 5730 5729 5729 5729 5730 5730 5730 5729 5729 5729
5716 5717 5718 5719 5719 5720 5720 5721 5720 5720 5720 5720 5721 5721 5722 5722 5722 5723 5724 5724 5725 5726 5726 5726 5725 5724 5724 5724 5724 5723 5723 5723 5723 5723 5723 5723 5723 5724 5724 5723 5723 5723
5711 5711 5712 5713 5713 5713 5714 5715 5715 5715 5715 5715 5715 5716 5716 5716 5717 5718 5718 5719 5719 5719 5720 5720 5719 5718 5718 5718 5718 5717 5717 5716 5716 5716 5716 5716 5717 5718 5718 5717 5716 5716
5707 5707 5707 5707 5707 5707 5707 5708 5708 5708 5708 5709 5709 5710 5711 5711 5711 5711 5711 5712 5712 5712 5712 5713 5712 5711 5711 5711 5711 5710 5710 5709 5709 5709 5709 5710 5711 5712 5711 5710 5710 5709
5702 5702 5701 5701 5701 5701 5700 5701 5701 5701 5702 5702 5702 5702 5703 5703 5704 5704 5704 5704 5705 5705 5705 5706 5706 5705 5704 5704 5704 5703 5702 5702 5701 5701 5701 5703 5704 5705 5705 5704 5704 5703
5695 5695 5695 5695 5695 5694 5694 5694 5694 5694 5694 5693 5693 5693 5693 5694 5694 5695 5696 5697 5697 5698 5698 5698 5697 5697 5697 5696 5696 5695 5695 5694 5693 5693 5693 5696 5698 5698 5697 5697 5697 5696
Wind_Speed
16 17 17 17 17 18 17 16 16 15 12 10 10 12 12 11 12 11 10 10 9 8 7 6 6 5 5 4 4 4 4 4 4 4 4 4 5 5 6 6 7 7
16 18 19 17 16 18 19 18 18 17 14 9 9 12 14 13 13 12 10 10 8 7 7 6 6 6 6 5 5 5 5 5 5 6 6 6 6 7 7 7 7 8
15 18 20 19 17 18 20 20 19 19 17 14 11 13 16 15 14 13 11 10 9 8 7 7 7 7 7 7 7 7 7 7 7 7 8 8 8 8 8 8 8 8
12 14 16 17 16 17 19 19 20 20 21 20 18 17 18 18 16 15 13 12 11 9 9 8 9 9 9 9 9 9 8 8 9 9 9 9 9 9 9 9 9 9
13 13 13 14 14 15 17 18 19 21 22 23 21 19 19 19 18 16 14 12 11 10 10 10 10 10 10 10 10 10 9 9 9 9 9 9 9 8 8 8 9 9
17 16 14 15 16 17 18 19 21 22 23 22 20 19 20 20 18 17 15 13 12 12 11 11 11 12 12 11 11 10 9 9 9 9 9 9 9 9 9 9 10 10
20 19 19 19 20 21 22 22 22 23 23 21 19 19 19 19 18 16 14 14 13 13 13 12 13 13 13 12 11 9 9 9 8 8 9 9 10 11 11 11 11 11
18 19 21 22 23 23 23 23 23 22 21 19 19 19 19 18 17 15 15 14 13 13 13 13 13 14 13 12 11 10 10 10 10 10 10 10 11 12 12 11 11 12
15 16 19 22 23 23 22 22 21 20 19 18 19 19 18 17 16 16 15 14 13 13 13 13 13 13 12 12 11 12 12 12 12 12 12 11 12 12 11 11 12 13
16 16 18 19 19 20 20 19 19 18 17 17 18 19 18 17 17 17 15 14 14 13 13 12 12 11 10 10 11 11 12 13 13 13 13 13 13 13 13 14 15 16
18 20 19 17 16 16 17 16 16 16 16 18 19 20 20 20 19 17 16 15 15 14 14 13 11 10 9 9 10 11 11 12 13 13 13 13 13 14 15 17 18 19
16 18 18 17 14 14 16 16 17 18 19 20 21 22 23 22 21 20 18 17 16 15 15 14 13 12 12 13 13 13 13 13 14 14 14 15 15 16 18 20 21 21
14 16 17 18 16 14 14 16 18 19 20 22 22 23 24 24 24 23 21 20 18 16 15 14 15 16 16 16 16 16 17 17 17 17 17 18 20 21 22 24 24 23
13 15 16 18 18 15 14 17 20 20 21 21 21 21 23 24 24 24 23 22 20 18 17 16 18 18 19 19 19 20 21 22 21 21 21 22 22 23 25 26 27 25
13 14 14 16 18 17 15 16 19 20 20 18 16 16 18 20 22 23 23 23 22 21 21 21 21 21 22 22 23 23 24 25 24 23 23 24 24 25 26 27 27 27
12 13 14 15 16 18 17 16 17 18 18 18 16 15 15 17 19 20 21 22 22 22 22 23 24 25 25 25 25 26 26 25 24 24 25 26 27 28 29 29 30 31
11 13 15 16 16 17 16 17 18 16 17 18 17 17 17 17 18 19 20 20 21 22 23 25 26 28 28 28 29 28 27 27 27 28 29 30 30 31 32 32 33 34
13 13 15 15 15 14 12 15 16 15 16 17 18 19 19 20 21 22 23 23 23 25 26 27 29 30 31 32 32 31 31 31 31 32 33 33 33 34 34 35 36 36
20 17 18 18 18 17 17 20 22 20 19 20 21 22 23 24 25 26 26 26 26 27 28 30 31 32 33 34 34 34 34 34 34 35 35 35 35 36 36 36 37 39
25 24 26 27 27 27 28 29 28 25 23 24 25 26 27 28 28 29 29 29 29 30 31 32 34 35 36 36 37 37 37 37 37 37 37 38 39 38 38 38 39 40
27 28 29 31 33 33 32 31 30 30 29 29 29 30 30 31 32 33 33 34 33 33 33 35 37 38 38 39 39 39 39 39 40 40 41 42 42 41 40 41 41 41
32 33 33 33 35 36 36 36 36 36 36 35 34 35 35 36 37 37 37 37 38 37 37 38 39 40 40 40 41 41 41 41 42 42 43 43 43 42 41 41 41 41
38 38 39 39 39 40 40 40 41 41 41 40 39 39 39 39 40 40 40 40 40 41 40 39 40 40 41 42 42 43 43 43 43 44 44 44 44 42 41 41 41 41
40 40 41 40 41 42 43 43 44 45 45 44 44 43 43 43 43 42 42 43 43 42 41 40 41 42 43 44 44 45 45 45 45 45 45 45 44 43 42 43 43 44
42 42 42 42 42 43 45 45 46 48 48 49 49 49 49 48 46 44 43 43 42 42 43 43 44 46 46 46 47 47 47 47 47 47 47 47 46 45 45 45 46 47
43 44 44 44 45 45 46 48 49 51 52 53 53 53 52 51 50 47 44 43 43 44 46 48 48 49 50 50 50 50 50 51 51 51 51 51 50 48 47 48 48 48
Wind_Direction
255 261 265 268 267 260 254 249 243 239 244 259 268 266 265 265 265 263 259 254 253 253 252 247 242 240 236 235 238 242 250 262 275 286 293 300 300 293 292 291 289 287
256 260 262 264 262 254 250 249 244 240 244 255 269 267 260 259 261 259 255 252 249 248 243 238 237 236 236 241 245 251 259 268 277 285 292 297 300 301 303 303 302 302
258 257 255 255 253 248 247 249 249 248 246 250 268 269 256 255 258 255 251 248 246 244 241 239 241 241 243 249 257 265 270 277 284 290 295 297 299 301 302 302 302 302
270 267 257 252 249 245 244 248 251 252 250 254 266 265 251 250 253 252 249 247 245 244 244 245 246 247 250 253 260 268 273 281 288 293 297 299 302 304 303 304 305 306
277 279 266 253 246 244 247 254 258 258 256 258 261 254 244 244 248 249 249 248 248 248 249 252 253 253 254 256 262 267 274 282 287 289 292 294 296 298 300 303 306 307
264 265 259 250 245 250 258 265 268 264 260 258 252 242 237 241 245 248 250 252 253 254 254 255 256 256 257 259 263 268 275 280 284 287 289 291 291 290 292 295 298 301
252 248 244 241 244 253 262 267 269 265 257 249 239 232 235 240 245 248 252 256 259 260 259 257 258 260 262 265 267 271 275 276 280 284 289 293 294 293 295 296 299 303
251 244 239 239 244 252 258 264 267 261 249 236 227 228 235 241 244 248 252 257 260 261 261 262 265 269 272 275 278 279 278 276 278 280 284 290 292 294 297 299 303 308
254 248 243 242 246 250 253 257 258 250 237 228 226 231 238 242 244 248 251 255 257 258 261 264 268 274 279 285 288 287 285 282 280 278 279 281 283 286 290 294 298 302
250 243 240 239 240 243 245 244 242 240 237 235 236 239 245 247 248 249 252 255 256 256 258 260 264 272 282 289 292 291 290 288 284 281 279 279 281 283 287 292 297 299
246 239 235 235 235 233 232 227 225 232 239 241 243 246 250 252 251 251 253 255 255 253 253 253 257 265 273 279 281 282 282 284 285 285 284 284 285 288 291 294 296 298
244 241 233 232 233 225 221 221 223 229 234 237 241 247 251 254 252 251 251 252 251 251 252 253 255 259 263 268 271 275 277 280 283 287 289 287 285 286 289 291 292 295
241 242 230 226 228 223 224 230 231 233 238 240 243 246 250 252 250 249 248 249 250 252 254 257 258 261 266 270 274 278 279 282 285 287 286 283 282 283 286 288 290 293
238 244 232 223 225 229 238 242 238 236 240 244 247 248 247 248 248 248 249 251 252 255 258 262 265 268 271 275 280 282 283 285 285 285 284 284 285 288 291 293 293 293
237 241 233 225 226 234 244 243 237 235 235 239 249 253 250 250 249 250 252 254 256 258 261 265 269 272 274 278 283 286 288 290 286 281 282 286 288 290 294 296 295 293
239 235 232 231 233 241 242 234 231 235 234 237 246 252 252 253 252 253 255 257 258 259 262 266 269 272 274 277 281 285 288 289 284 279 281 285 287 289 291 292 291 290
249 249 246 244 246 250 241 224 222 228 230 234 241 244 247 249 249 251 253 254 257 259 262 266 269 272 274 276 279 282 283 282 279 279 281 283 285 287 288 289 289 288
260 255 247 245 244 244 236 228 234 237 235 239 243 244 247 249 250 253 253 255 258 261 264 267 270 273 275 277 279 280 281 281 280 280 279 279 282 284 286 288 288 287
266 257 253 255 250 247 249 254 258 257 251 249 249 248 250 251 253 255 256 258 260 263 266 269 271 274 275 276 278 279 280 280 281 281 278 277 280 282 283 284 286 285
272 267 267 268 264 260 259 258 260 260 257 254 254 254 255 255 257 258 258 258 259 261 264 267 269 272 273 274 276 277 278 279 281 281 278 278 281 283 281 281 281 280
274 272 271 270 267 265 262 260 259 260 260 259 259 259 258 257 258 258 258 258 259 259 261 264 267 269 271 272 274 275 277 277 278 279 278 278 281 282 281 280 278 276
268 266 266 266 266 265 264 262 261 263 264 264 263 261 259 258 258 258 259 260 260 261 261 263 265 268 269 271 273 275 277 278 277 277 278 279 280 281 281 278 274 271
270 269 267 266 266 266 266 265 264 264 264 263 263 262 261 260 261 261 262 263 264 264 265 265 266 269 272 274 276 277 278 278 278 278 278 279 280 281 279 275 272 270
273 272 270 269 268 267 266 265 265 265 265 265 266 266 265 265 266 267 266 266 265 265 265 265 268 273 277 278 279 280 280 279 279 279 278 279 280 279 277 274 272 271
271 271 270 269 268 267 265 265 265 266 268 269 269 270 269 269 270 270 268 265 265 265 266 266 269 275 279 281 281 281 281 281 281 280 279 280 281 280 278 277 275 274
270 270 268 268 267 266 265 265 267 268 269 270 270 271 272 272 272 272 270 266 267 271 274 275 276 279 281 282 282 282 281 281 281 280 280 281 282 281 280 279 278 276